TimeMDT,TemperatureF,Dew PointF,Humidity,Sea Level PressureIn,VisibilityMPH,Wind Direction,Wind SpeedMPH,Gust SpeedMPH,PrecipitationIn,Events,Conditions,WindDirDegrees,DateUTC
12:15 AM,42.8,33.8,70,29.97,10.0,East,4.6,-,N/A,,Overcast,100,2013-05-22 06:15:00
12:35 AM,41.0,33.8,76,29.97,10.0,SE,5.8,-,N/A,,Mostly Cloudy,130,2013-05-22 06:35:00
12:55 AM,41.0,33.8,76,29.95,10.0,ESE,8.1,-,N/A,,Overcast,110,2013-05-22 06:55:00
1:15 AM,41.0,33.8,76,29.95,10.0,East,5.8,-,N/A,,Overcast,100,2013-05-22 07:15:00
1:35 AM,41.0,33.8,76,29.95,10.0,ESE,5.8,-,N/A,,Overcast,110,2013-05-22 07:35:00
1:55 AM,42.8,33.8,70,29.95,10.0,NE,4.6,-,N/A,,Overcast,50,2013-05-22 07:55:00
2:15 AM,42.8,33.8,70,29.94,10.0,East,10.4,-,N/A,,Overcast,90,2013-05-22 08:15:00
2:35 AM,44.6,33.8,66,29.95,10.0,Calm,Calm,-,N/A,,Overcast,0,2013-05-22 08:35:00
2:55 AM,42.8,33.8,70,29.95,10.0,Calm,Calm,-,N/A,,Overcast,0,2013-05-22 08:55:00
3:15 AM,42.8,33.8,70,29.93,10.0,Calm,Calm,-,N/A,,Overcast,0,2013-05-22 09:15:00
3:35 AM,42.8,35.6,76,29.93,10.0,SSW,3.5,-,N/A,,Overcast,200,2013-05-22 09:35:00
3:55 AM,41.0,33.8,76,29.93,10.0,Calm,Calm,-,N/A,,Mostly Cloudy,0,2013-05-22 09:55:00
4:15 AM,41.0,33.8,76,29.92,10.0,ENE,4.6,-,N/A,,Scattered Clouds,60,2013-05-22 10:15:00
4:35 AM,39.2,33.8,81,29.93,10.0,Calm,Calm,-,N/A,,Mostly Cloudy,0,2013-05-22 10:35:00
4:55 AM,41.0,35.6,81,29.93,10.0,Calm,Calm,-,N/A,,Mostly Cloudy,0,2013-05-22 10:55:00
5:15 AM,42.8,33.8,70,29.92,10.0,Calm,Calm,-,N/A,,Mostly Cloudy,0,2013-05-22 11:15:00
5:35 AM,42.8,33.8,70,29.92,10.0,SE,4.6,-,N/A,,Mostly Cloudy,130,2013-05-22 11:35:00
5:55 AM,37.4,33.8,87,29.92,10.0,Calm,Calm,-,N/A,,Overcast,0,2013-05-22 11:55:00
6:15 AM,41.0,35.6,81,29.92,10.0,Calm,Calm,-,N/A,,Overcast,0,2013-05-22 12:15:00
6:35 AM,41.0,35.6,81,29.92,10.0,Calm,Calm,-,N/A,,Mostly Cloudy,0,2013-05-22 12:35:00
6:55 AM,42.8,35.6,76,29.92,10.0,Calm,Calm,-,N/A,,Scattered Clouds,0,2013-05-22 12:55:00
7:15 AM,46.4,35.6,66,29.92,10.0,SE,4.6,-,N/A,,Scattered Clouds,130,2013-05-22 13:15:00
7:35 AM,48.2,35.6,62,29.93,10.0,Calm,Calm,-,N/A,,Scattered Clouds,0,2013-05-22 13:35:00
7:55 AM,51.8,35.6,54,29.92,10.0,SE,4.6,-,N/A,,Clear,130,2013-05-22 13:55:00
8:15 AM,53.6,35.6,51,29.92,10.0,ESE,4.6,-,N/A,,Clear,110,2013-05-22 14:15:00
8:35 AM,55.4,35.6,47,29.91,10.0,ESE,15.0,19.6,N/A,,Clear,120,2013-05-22 14:35:00
8:55 AM,59.0,33.8,39,29.91,10.0,SE,12.7,18.4,N/A,,Clear,140,2013-05-22 14:55:00
9:15 AM,59.0,32.0,36,29.91,10.0,ESE,13.8,19.6,N/A,,Clear,120,2013-05-22 15:15:00
9:35 AM,59.0,32.0,36,29.90,10.0,SSE,13.8,20.7,N/A,,Clear,150,2013-05-22 15:35:00
9:55 AM,60.8,32.0,34,29.90,10.0,SSE,15.0,20.7,N/A,,Clear,150,2013-05-22 15:55:00
10:15 AM,60.8,32.0,34,29.90,10.0,SE,15.0,20.7,N/A,,Clear,140,2013-05-22 16:15:00
10:35 AM,60.8,32.0,34,29.89,10.0,SE,9.2,-,N/A,,Clear,130,2013-05-22 16:35:00
10:55 AM,64.4,30.2,28,29.88,10.0,SE,12.7,23.0,N/A,,Clear,130,2013-05-22 16:55:00
11:15 AM,62.6,30.2,30,29.88,10.0,SSE,12.7,21.9,N/A,,Clear,150,2013-05-22 17:15:00
11:35 AM,64.4,30.2,28,29.88,10.0,SE,15.0,24.2,N/A,,Clear,130,2013-05-22 17:35:00
11:55 AM,64.4,28.4,26,29.88,10.0,SE,16.1,23.0,N/A,,Clear,140,2013-05-22 17:55:00
12:15 PM,64.4,28.4,26,29.87,10.0,SSE,16.1,28.8,N/A,,Clear,160,2013-05-22 18:15:00
12:35 PM,66.2,28.4,24,29.87,10.0,SSE,18.4,24.2,N/A,,Clear,160,2013-05-22 18:35:00
12:55 PM,66.2,28.4,24,29.87,10.0,SSE,19.6,31.1,N/A,,Scattered Clouds,150,2013-05-22 18:55:00
1:15 PM,66.2,26.6,23,29.85,10.0,SSE,17.3,29.9,N/A,,Scattered Clouds,150,2013-05-22 19:15:00
1:35 PM,64.4,26.6,24,29.85,10.0,SSE,18.4,28.8,N/A,,Mostly Cloudy,150,2013-05-22 19:35:00
1:55 PM,69.8,23.0,17,29.84,10.0,SSE,18.4,27.6,N/A,,Mostly Cloudy,150,2013-05-22 19:55:00
2:15 PM,68.0,23.0,18,29.84,10.0,SSE,11.5,31.1,N/A,,Mostly Cloudy,150,2013-05-22 20:15:00
2:35 PM,66.2,26.6,23,29.83,10.0,ESE,10.4,35.7,N/A,,Mostly Cloudy,120,2013-05-22 20:35:00
2:55 PM,66.2,28.4,24,29.82,10.0,ESE,17.3,25.3,N/A,,Mostly Cloudy,110,2013-05-22 20:55:00
3:15 PM,69.8,26.6,20,29.81,10.0,SE,19.6,35.7,N/A,,Scattered Clouds,130,2013-05-22 21:15:00
3:35 PM,66.2,26.6,23,29.81,10.0,SE,17.3,28.8,N/A,,Scattered Clouds,130,2013-05-22 21:35:00
3:55 PM,66.2,23.0,19,29.80,10.0,SE,20.7,31.1,N/A,,Mostly Cloudy,130,2013-05-22 21:55:00
4:15 PM,69.8,23.0,17,29.79,10.0,SSE,20.7,33.4,N/A,,Mostly Cloudy,150,2013-05-22 22:15:00
4:35 PM,68.0,23.0,18,29.79,10.0,SE,21.9,35.7,N/A,,Mostly Cloudy,140,2013-05-22 22:35:00
4:55 PM,68.0,21.2,17,29.78,10.0,SE,16.1,25.3,N/A,,Overcast,140,2013-05-22 22:55:00
5:15 PM,68.0,19.4,16,29.78,10.0,SE,18.4,32.2,N/A,,Mostly Cloudy,130,2013-05-22 23:15:00
5:35 PM,66.2,21.2,18,29.78,10.0,SE,18.4,29.9,N/A,,Overcast,140,2013-05-22 23:35:00
5:55 PM,66.2,21.2,18,29.79,10.0,SSE,16.1,27.6,N/A,,Overcast,150,2013-05-22 23:55:00
6:15 PM,66.2,19.4,17,29.78,10.0,SSE,16.1,32.2,N/A,,Overcast,150,2013-05-23 00:15:00
6:35 PM,66.2,19.4,17,29.79,10.0,South,26.5,38.0,N/A,,Overcast,180,2013-05-23 00:35:00
6:55 PM,64.4,19.4,18,29.79,10.0,South,11.5,-,N/A,,Overcast,170,2013-05-23 00:55:00
7:15 PM,64.4,19.4,18,29.80,10.0,SSW,15.0,20.7,N/A,,Overcast,200,2013-05-23 01:15:00
7:35 PM,64.4,23.0,21,29.80,10.0,South,3.5,-,N/A,,Overcast,180,2013-05-23 01:35:00
7:55 PM,62.6,26.6,26,29.81,10.0,West,15.0,32.2,N/A,,Overcast,260,2013-05-23 01:55:00
8:15 PM,60.8,28.4,29,29.81,10.0,North,3.5,-,N/A,,Scattered Clouds,350,2013-05-23 02:15:00
8:35 PM,59.0,28.4,31,29.80,10.0,ESE,8.1,18.4,N/A,,Mostly Cloudy,110,2013-05-23 02:35:00
8:55 PM,60.8,24.8,25,29.80,10.0,ESE,12.7,23.0,N/A,,Mostly Cloudy,110,2013-05-23 02:55:00
9:15 PM,60.8,24.8,25,29.83,10.0,SSW,18.4,29.9,N/A,,Mostly Cloudy,200,2013-05-23 03:15:00
9:35 PM,60.8,26.6,27,29.83,10.0,SW,16.1,23.0,N/A,,Overcast,230,2013-05-23 03:35:00
9:55 PM,60.8,26.6,27,29.84,10.0,SE,17.3,34.5,N/A,,Mostly Cloudy,140,2013-05-23 03:55:00
10:15 PM,60.8,26.6,27,29.83,10.0,SSE,6.9,10.4,N/A,,Mostly Cloudy,150,2013-05-23 04:15:00
10:35 PM,59.0,26.6,29,29.81,10.0,ENE,6.9,-,N/A,,Scattered Clouds,60,2013-05-23 04:35:00
10:55 PM,59.0,26.6,29,29.81,10.0,Calm,Calm,-,N/A,,Mostly Cloudy,0,2013-05-23 04:55:00
11:15 PM,53.6,28.4,38,29.81,10.0,East,8.1,-,N/A,,Scattered Clouds,90,2013-05-23 05:15:00
11:35 PM,57.2,30.2,36,29.82,10.0,SE,19.6,23.0,N/A,,Scattered Clouds,140,2013-05-23 05:35:00
11:55 PM,57.2,32.0,38,29.80,10.0,ESE,15.0,24.2,N/A,,Scattered Clouds,110,2013-05-23 05:55:00